SHT18P EGLL-EGPD

Flight info

Callsign SHT18P
Flight time 1h 4m
Altitude 36000
Route ULTIB T420 AKUPA UY250 KEFTE DCT AGPED/N0449F350 DCT MADAD/N0402F240 P18 EPCAN
Aircraft A21N/M-SDE3FGHIRWY/LB1

Departure

Time 2026-05-06 20:50
Airport London Heathrow Airport (EGLL)

Arrival

Time 2026-05-06 21:54
Airport Aberdeen International Airport (EGPD)
Time Latitude Longitude Altitude Speed Heading
2026-05-06 20:10 51.47187 -0.48590 82 ft 0 kts 270°
2026-05-06 20:38 51.47187 -0.48573 82 ft 2 kts 270°
2026-05-06 20:38 51.47187 -0.48549 82 ft 2 kts 270°
2026-05-06 20:38 51.47187 -0.48533 82 ft 0 kts 270°
2026-05-06 20:39 51.47188 -0.48511 82 ft 2 kts 246°
2026-05-06 20:39 51.47197 -0.48490 82 ft 2 kts 225°
2026-05-06 20:39 51.47209 -0.48477 82 ft 2 kts 201°
2026-05-06 20:39 51.47221 -0.48472 82 ft 0 kts 182°
2026-05-06 20:40 51.47227 -0.48472 82 ft 1 kts 179°
2026-05-06 20:40 51.47228 -0.48472 82 ft 0 kts 180°
2026-05-06 20:44 51.47227 -0.48472 82 ft 1 kts 180°
2026-05-06 20:44 51.47203 -0.48472 82 ft 5 kts 180°
2026-05-06 20:44 51.47152 -0.48472 82 ft 9 kts 181°
2026-05-06 20:44 51.47073 -0.48473 82 ft 13 kts 180°
2026-05-06 20:45 51.46977 -0.48472 82 ft 14 kts 179°
2026-05-06 20:45 51.46878 -0.48469 82 ft 14 kts 179°
2026-05-06 20:45 51.46785 -0.48469 82 ft 7 kts 180°
2026-05-06 20:45 51.46743 -0.48499 82 ft 7 kts 247°
2026-05-06 20:46 51.46740 -0.48592 82 ft 9 kts 270°
2026-05-06 20:46 51.46740 -0.48699 82 ft 8 kts 264°
2026-05-06 20:46 51.46692 -0.48750 82 ft 9 kts 183°
2026-05-06 20:46 51.46637 -0.48750 82 ft 5 kts 187°
2026-05-06 20:47 51.46603 -0.48766 82 ft 0 kts 199°
2026-05-06 20:48 51.46597 -0.48769 82 ft 2 kts 199°
2026-05-06 20:48 51.46573 -0.48782 82 ft 5 kts 198°
2026-05-06 20:48 51.46525 -0.48788 82 ft 8 kts 166°
2026-05-06 20:49 51.46478 -0.48704 82 ft 13 kts 100°
2026-05-06 20:49 51.46478 -0.48330 82 ft 69 kts 90°
2026-05-06 20:49 51.46481 -0.47162 83 ft 138 kts 90°
2026-05-06 20:49 51.46484 -0.45335 202 ft 181 kts 88°
2026-05-06 20:50 51.46489 -0.43355 944 ft 182 kts 88°
2026-05-06 20:50 51.46530 -0.41351 1723 ft 183 kts 79°
2026-05-06 20:50 51.47111 -0.39523 2243 ft 196 kts 48°
2026-05-06 20:50 51.48107 -0.37905 2725 ft 214 kts 46°
2026-05-06 20:51 51.49173 -0.36092 3148 ft 237 kts 48°
2026-05-06 20:51 51.50299 -0.34063 3786 ft 251 kts 49°
2026-05-06 20:51 51.51459 -0.31901 4575 ft 259 kts 50°
2026-05-06 20:51 51.52522 -0.29588 5420 ft 264 kts 63°
2026-05-06 20:52 51.53167 -0.26868 6274 ft 268 kts 72°
2026-05-06 20:52 51.53702 -0.23997 7106 ft 272 kts 73°
2026-05-06 20:52 51.54265 -0.21097 7919 ft 276 kts 69°
2026-05-06 20:52 51.55309 -0.18543 8658 ft 279 kts 38°
2026-05-06 20:53 51.57043 -0.17268 9452 ft 280 kts
2026-05-06 20:53 51.58940 -0.17630 10232 ft 281 kts 336°
2026-05-06 20:53 51.60490 -0.19502 10786 ft 293 kts 310°
2026-05-06 20:53 51.61700 -0.22264 11197 ft 309 kts 309°
2026-05-06 20:54 51.63239 -0.24782 11539 ft 326 kts 321°
2026-05-06 20:54 51.65100 -0.26939 12005 ft 340 kts 327°
2026-05-06 20:54 51.67118 -0.28966 12687 ft 344 kts 329°
2026-05-06 20:54 51.69170 -0.30945 13438 ft 347 kts 329°
2026-05-06 20:55 51.71251 -0.32940 14160 ft 350 kts 329°
2026-05-06 20:55 51.73325 -0.34932 14845 ft 354 kts 329°
2026-05-06 20:55 51.75447 -0.36977 15519 ft 358 kts 329°
2026-05-06 20:55 51.77583 -0.39042 16169 ft 362 kts 329°
2026-05-06 20:56 51.79745 -0.41136 16810 ft 366 kts 329°
2026-05-06 20:56 51.81919 -0.43241 17453 ft 369 kts 329°
2026-05-06 20:56 51.84130 -0.45385 18081 ft 372 kts 328°
2026-05-06 20:56 51.86370 -0.47559 18684 ft 376 kts 328°
2026-05-06 20:57 51.88596 -0.49725 19282 ft 379 kts 328°
2026-05-06 20:57 51.90895 -0.51963 19912 ft 382 kts 328°
2026-05-06 20:57 51.93191 -0.54203 20485 ft 385 kts 328°
2026-05-06 20:57 51.95473 -0.56428 21025 ft 389 kts 328°
2026-05-06 20:58 51.97807 -0.58706 21550 ft 392 kts 328°
2026-05-06 20:58 52.00140 -0.60987 22063 ft 395 kts 328°
2026-05-06 20:58 52.02500 -0.63297 22565 ft 399 kts 328°
2026-05-06 20:58 52.04862 -0.65614 23046 ft 402 kts 327°
2026-05-06 20:59 52.07252 -0.67965 23530 ft 404 kts 327°
2026-05-06 20:59 52.09685 -0.70359 23992 ft 407 kts 327°
2026-05-06 20:59 52.12102 -0.72738 24439 ft 410 kts 327°
2026-05-06 20:59 52.14542 -0.75142 24899 ft 413 kts 327°
2026-05-06 21:00 52.17009 -0.77575 25349 ft 415 kts 327°
2026-05-06 21:00 52.19461 -0.79999 25783 ft 417 kts 327°
2026-05-06 21:00 52.21978 -0.82491 26216 ft 419 kts 327°
2026-05-06 21:00 52.24427 -0.84917 26615 ft 421 kts 327°
2026-05-06 21:01 52.27009 -0.87476 27026 ft 423 kts 327°
2026-05-06 21:01 52.29557 -0.90004 27400 ft 425 kts 327°
2026-05-06 21:01 52.32062 -0.92497 27764 ft 427 kts 327°
2026-05-06 21:01 52.34607 -0.95032 28126 ft 429 kts 327°
2026-05-06 21:02 52.37135 -0.97557 28463 ft 431 kts 327°
2026-05-06 21:02 52.39693 -1.00117 28802 ft 433 kts 327°
2026-05-06 21:02 52.42263 -1.02688 29192 ft 433 kts 327°
2026-05-06 21:02 52.44855 -1.05088 29643 ft 432 kts 333°
2026-05-06 21:03 52.47640 -1.06922 30094 ft 431 kts 341°
2026-05-06 21:03 52.50494 -1.08100 30525 ft 430 kts 348°
2026-05-06 21:03 52.53495 -1.08654 30921 ft 431 kts 356°
2026-05-06 21:03 52.56495 -1.08615 31294 ft 430 kts
2026-05-06 21:04 52.59447 -1.08390 31665 ft 429 kts
2026-05-06 21:04 52.62429 -1.08129 32010 ft 428 kts
2026-05-06 21:04 52.65396 -1.07879 32314 ft 428 kts
2026-05-06 21:04 52.68338 -1.07649 32617 ft 427 kts
2026-05-06 21:05 52.71308 -1.07588 32935 ft 425 kts 358°
2026-05-06 21:05 52.74227 -1.07788 33244 ft 424 kts 355°
2026-05-06 21:05 52.77137 -1.08254 33512 ft 423 kts 352°
2026-05-06 21:05 52.80034 -1.08980 33787 ft 422 kts 349°
2026-05-06 21:06 52.82939 -1.09840 34054 ft 421 kts 349°
2026-05-06 21:06 52.85809 -1.10719 34306 ft 421 kts 349°
2026-05-06 21:06 52.88650 -1.11595 34536 ft 421 kts 349°
2026-05-06 21:06 52.91534 -1.12481 34741 ft 421 kts 349°
2026-05-06 21:07 52.94420 -1.13366 34913 ft 422 kts 349°
2026-05-06 21:07 52.97277 -1.14240 35069 ft 422 kts 349°
2026-05-06 21:07 53.00163 -1.15126 35228 ft 423 kts 349°
2026-05-06 21:07 53.03059 -1.16015 35378 ft 423 kts 349°
2026-05-06 21:08 53.05944 -1.16900 35508 ft 424 kts 349°
2026-05-06 21:08 53.08805 -1.17779 35630 ft 425 kts 349°
2026-05-06 21:08 53.11715 -1.18673 35753 ft 425 kts 349°
2026-05-06 21:09 53.17538 -1.20467 35774 ft 427 kts 349°
2026-05-06 21:09 53.23380 -1.22274 35961 ft 429 kts 349°
2026-05-06 21:10 53.29216 -1.24084 36040 ft 430 kts 349°
2026-05-06 21:10 53.35083 -1.25911 36049 ft 429 kts 349°
2026-05-06 21:11 53.40917 -1.27657 36065 ft 429 kts 351°
2026-05-06 21:11 53.46826 -1.28648 36062 ft 428 kts 355°
2026-05-06 21:12 53.52732 -1.29623 36065 ft 427 kts 350°
2026-05-06 21:12 53.58485 -1.31934 36062 ft 427 kts 341°
2026-05-06 21:13 53.63931 -1.35759 36076 ft 426 kts 334°
2026-05-06 21:13 53.69099 -1.40633 36075 ft 427 kts 330°
2026-05-06 21:14 53.74171 -1.45708 36077 ft 425 kts 330°
2026-05-06 21:14 53.79190 -1.50836 36066 ft 424 kts 330°
2026-05-06 21:15 53.84206 -1.55976 36084 ft 424 kts 330°
2026-05-06 21:15 53.89235 -1.61139 36082 ft 423 kts 330°
2026-05-06 21:16 53.94251 -1.66290 36078 ft 422 kts 330°
2026-05-06 21:16 53.99467 -1.70759 36073 ft 421 kts 338°
2026-05-06 21:17 54.04964 -1.73975 36079 ft 419 kts 345°
2026-05-06 21:17 54.10656 -1.75894 36070 ft 420 kts 352°
2026-05-06 21:18 54.16467 -1.77008 36064 ft 419 kts 353°
2026-05-06 21:18 54.22308 -1.78065 36062 ft 420 kts 353°
2026-05-06 21:19 54.28087 -1.79119 36071 ft 419 kts 353°
2026-05-06 21:19 54.33863 -1.80180 36066 ft 419 kts 353°
2026-05-06 21:20 54.39644 -1.81245 36066 ft 418 kts 353°
2026-05-06 21:20 54.45410 -1.82313 36061 ft 418 kts 353°
2026-05-06 21:21 54.51078 -1.83366 36063 ft 418 kts 352°
2026-05-06 21:21 54.56736 -1.84422 36060 ft 418 kts 353°
2026-05-06 21:22 54.62523 -1.85503 36058 ft 418 kts 352°
2026-05-06 21:22 54.68274 -1.86581 36054 ft 418 kts 352°
2026-05-06 21:23 54.74013 -1.87659 36052 ft 418 kts 352°
2026-05-06 21:23 54.79784 -1.88745 36051 ft 417 kts 352°
2026-05-06 21:24 54.85532 -1.89834 36045 ft 416 kts 352°
2026-05-06 21:24 54.91265 -1.90920 36045 ft 417 kts 352°
2026-05-06 21:25 54.97005 -1.92014 36055 ft 417 kts 352°
2026-05-06 21:25 55.02740 -1.93111 36059 ft 417 kts 352°
2026-05-06 21:26 55.08485 -1.94025 36051 ft 418 kts 355°
2026-05-06 21:26 55.14196 -1.93969 36048 ft 419 kts
2026-05-06 21:27 55.19987 -1.92857 36052 ft 420 kts
2026-05-06 21:27 55.25751 -1.91317 36048 ft 420 kts
2026-05-06 21:28 55.30494 -1.90035 36041 ft 419 kts
2026-05-06 21:28 55.36240 -1.88482 36040 ft 420 kts
2026-05-06 21:29 55.41988 -1.86925 36044 ft 420 kts
2026-05-06 21:29 55.47702 -1.85377 36048 ft 420 kts
2026-05-06 21:30 55.53482 -1.83805 36046 ft 419 kts
2026-05-06 21:30 55.59213 -1.82242 36048 ft 419 kts
2026-05-06 21:31 55.64962 -1.80671 36053 ft 419 kts
2026-05-06 21:31 55.70666 -1.79105 36053 ft 420 kts
2026-05-06 21:32 55.76450 -1.77517 36063 ft 420 kts
2026-05-06 21:32 55.85052 -1.75142 35983 ft 415 kts
2026-05-06 21:33 55.87894 -1.74434 35649 ft 412 kts
2026-05-06 21:33 55.90713 -1.74189 35042 ft 413 kts 356°
2026-05-06 21:33 55.93582 -1.74480 34344 ft 411 kts 350°
2026-05-06 21:33 55.96344 -1.75243 33795 ft 406 kts 346°
2026-05-06 21:34 55.99090 -1.76217 33233 ft 403 kts 346°
2026-05-06 21:34 56.01819 -1.77231 32501 ft 405 kts 345°
2026-05-06 21:34 56.04575 -1.78258 31601 ft 410 kts 345°
2026-05-06 21:34 56.07376 -1.79303 30906 ft 410 kts 345°
2026-05-06 21:35 56.10112 -1.80324 30241 ft 409 kts 345°
2026-05-06 21:35 56.12933 -1.81377 29331 ft 414 kts 345°
2026-05-06 21:35 56.15734 -1.82423 28636 ft 413 kts 344°
2026-05-06 21:35 56.18543 -1.83470 28058 ft 410 kts 344°
2026-05-06 21:36 56.21298 -1.84496 27486 ft 406 kts 344°
2026-05-06 21:36 56.24022 -1.85512 26820 ft 406 kts 344°
2026-05-06 21:36 56.26811 -1.86556 25782 ft 414 kts 344°
2026-05-06 21:36 56.29629 -1.87614 24817 ft 419 kts 344°
2026-05-06 21:37 56.32481 -1.88685 24125 ft 418 kts 344°
2026-05-06 21:37 56.35287 -1.89739 23214 ft 418 kts 344°
2026-05-06 21:37 56.38098 -1.90803 22080 ft 419 kts 344°
2026-05-06 21:37 56.40931 -1.91873 21093 ft 418 kts 345°
2026-05-06 21:38 56.43742 -1.92935 20598 ft 410 kts 345°
2026-05-06 21:38 56.46493 -1.93969 20383 ft 397 kts 345°
2026-05-06 21:38 56.49153 -1.94973 20041 ft 389 kts 344°
2026-05-06 21:38 56.51776 -1.95968 19616 ft 383 kts 344°
2026-05-06 21:39 56.54335 -1.96941 19138 ft 380 kts 345°
2026-05-06 21:39 56.56917 -1.97927 18585 ft 379 kts 345°
2026-05-06 21:39 56.59465 -1.98900 17983 ft 379 kts 345°
2026-05-06 21:39 56.62049 -1.99889 17358 ft 379 kts 345°
2026-05-06 21:40 56.64606 -2.00866 16834 ft 377 kts 345°
2026-05-06 21:40 56.67151 -2.01837 16268 ft 371 kts 345°
2026-05-06 21:40 56.69634 -2.02786 15470 ft 369 kts 345°
2026-05-06 21:40 56.72140 -2.03747 14643 ft 366 kts 345°
2026-05-06 21:41 56.74577 -2.04682 13853 ft 362 kts 345°
2026-05-06 21:41 56.77038 -2.05630 13047 ft 358 kts 345°
2026-05-06 21:41 56.79441 -2.06555 12254 ft 355 kts 346°
2026-05-06 21:41 56.81838 -2.07478 11449 ft 352 kts 346°
2026-05-06 21:42 56.84207 -2.08394 10757 ft 345 kts 346°
2026-05-06 21:42 56.86480 -2.09272 10399 ft 330 kts 346°
2026-05-06 21:42 56.88656 -2.10112 10121 ft 313 kts 346°
2026-05-06 21:42 56.90725 -2.10914 10026 ft 294 kts 345°
2026-05-06 21:43 56.92695 -2.11836 9952 ft 291 kts 340°
2026-05-06 21:43 56.94587 -2.13035 9826 ft 291 kts 336°
2026-05-06 21:43 56.96460 -2.14365 9449 ft 289 kts 336°
2026-05-06 21:43 56.98329 -2.15717 9102 ft 286 kts 336°
2026-05-06 21:44 57.00146 -2.17033 8772 ft 283 kts 336°
2026-05-06 21:44 57.01961 -2.18343 8413 ft 281 kts 336°
2026-05-06 21:44 57.03781 -2.19655 8047 ft 279 kts 336°
2026-05-06 21:44 57.05573 -2.20944 7677 ft 277 kts 336°
2026-05-06 21:45 57.07348 -2.22222 7297 ft 275 kts 336°
2026-05-06 21:45 57.09132 -2.23508 6918 ft 273 kts 336°
2026-05-06 21:45 57.10893 -2.24777 6543 ft 271 kts 336°
2026-05-06 21:45 57.12620 -2.26024 6164 ft 270 kts 336°
2026-05-06 21:46 57.14368 -2.27287 5884 ft 265 kts 336°
2026-05-06 21:46 57.16059 -2.28510 5707 ft 256 kts 336°
2026-05-06 21:46 57.17666 -2.29672 5550 ft 247 kts 336°
2026-05-06 21:46 57.19264 -2.30830 5420 ft 248 kts 336°
2026-05-06 21:47 57.20877 -2.32003 5217 ft 248 kts 336°
2026-05-06 21:47 57.22462 -2.33155 5015 ft 247 kts 337°
2026-05-06 21:47 57.24065 -2.34322 4813 ft 247 kts 337°
2026-05-06 21:47 57.25652 -2.35476 4607 ft 246 kts 337°
2026-05-06 21:48 57.27221 -2.36616 4394 ft 240 kts 337°
2026-05-06 21:48 57.28760 -2.37737 4182 ft 234 kts 337°
2026-05-06 21:48 57.30257 -2.38828 3970 ft 229 kts 337°
2026-05-06 21:48 57.31739 -2.39554 3852 ft 216 kts 358°
2026-05-06 21:49 57.33174 -2.38845 3422 ft 216 kts 33°
2026-05-06 21:49 57.34162 -2.36898 3103 ft 204 kts 65°
2026-05-06 21:49 57.34501 -2.34528 2942 ft 185 kts 92°
2026-05-06 21:49 57.34470 -2.32261 2836 ft 168 kts 103°
2026-05-06 21:50 57.33945 -2.30456 2750 ft 158 kts 142°
2026-05-06 21:50 57.33034 -2.29385 2716 ft 156 kts 156°
2026-05-06 21:50 57.32052 -2.28546 2592 ft 154 kts 159°
2026-05-06 21:50 57.31089 -2.27805 2369 ft 146 kts 160°
2026-05-06 21:51 57.30157 -2.27115 2169 ft 143 kts 160°
2026-05-06 21:51 57.29237 -2.26441 1985 ft 143 kts 160°
2026-05-06 21:51 57.28327 -2.25772 1832 ft 141 kts 160°
2026-05-06 21:51 57.27411 -2.25098 1635 ft 140 kts 160°
2026-05-06 21:52 57.26516 -2.24434 1435 ft 139 kts 160°
2026-05-06 21:52 57.25630 -2.23753 1241 ft 139 kts 159°
2026-05-06 21:52 57.24730 -2.23075 1025 ft 138 kts 160°
2026-05-06 21:52 57.23841 -2.22461 848 ft 138 kts 160°
2026-05-06 21:53 57.22946 -2.21807 691 ft 138 kts 160°
2026-05-06 21:53 57.22068 -2.21142 459 ft 137 kts 160°
2026-05-06 21:53 57.21176 -2.20500 292 ft 137 kts 160°
2026-05-06 21:53 57.20336 -2.19886 223 ft 106 kts 157°
2026-05-06 21:54 57.19846 -2.19524 223 ft 61 kts 158°
2026-05-06 21:54 57.19588 -2.19332 223 ft 22 kts 158°
2026-05-06 21:54 57.19481 -2.19253 223 ft 11 kts 159°
2026-05-06 21:54 57.19432 -2.19273 223 ft 8 kts 229°
2026-05-06 21:55 57.19434 -2.19371 223 ft 9 kts 314°
2026-05-06 21:55 57.19498 -2.19481 223 ft 16 kts 319°
2026-05-06 21:55 57.19601 -2.19643 223 ft 16 kts 319°
2026-05-06 21:55 57.19702 -2.19740 223 ft 16 kts 339°
2026-05-06 21:56 57.19811 -2.19819 223 ft 17 kts 338°
2026-05-06 21:56 57.19891 -2.19905 223 ft 13 kts 315°
2026-05-06 21:56 57.19956 -2.20022 223 ft 10 kts 316°
2026-05-06 21:56 57.20018 -2.20090 223 ft 10 kts 339°
2026-05-06 21:57 57.20072 -2.20130 223 ft 4 kts 338°
2026-05-06 21:57 57.20081 -2.20169 223 ft 4 kts 266°
2026-05-06 21:57 57.20072 -2.20217 223 ft 4 kts 246°
2026-05-06 21:57 57.20069 -2.20231 223 ft 1 kts 248°